Location:  
MeteoStar


Sort by weather type Sort by elevation Sort by visibility Sort from west to east north Sort from north to south Alphabetically Sort from strongest wind speed Sort from lowest to highest pressure Sort from highest to lowest dew point temperature Sort coolest temperatures to warmest Sort warm temperatures to coolest
 Metric

Current Observations for United Kingdom sorted from warmest to coolest

Valley08:50ZClear68 48201008.1E 6 683
Jersey Airport08:50ZNot Avail.68 57201010.0SE 16 68275
Alderney / Channel Island08:50ZNot Avail.68 55201010.1SE 13 68232
Trawscoed09:00ZNot Avail.67 46201009SSE 4 67206
Aultbea09:00ZNot Avail.67 49251010.2ESE 9 6736
Pembrey Sands08:50ZClear66 48351008.1ESE 15 Gusting to 25 669
Guernsey Airport08:50ZClear66 57251009.0SE 13 66334
Bournemouth Airport08:50ZNot Avail.66 54201011.1ESE 12 6636
Plymouth09:00ZNot Avail.66 56131007.9E 13 Gusting to 25 66164
Saint Catherines Point09:00ZNot Avail.65 54131011.4E 20 Gusting to 25 6552
Isle Of Portland09:00ZNot Avail.65 56131010.7E 22 Gusting to 28 65173
Cardinham09:00ZNot Avail.65 55141007.0ESE 15 Gusting to 25 65656
Weybourne09:00ZNot Avail.65 51301016.7ESE 10 6568
Mildenhall Royal Air Force Base08:56ZClear65 51201015.2SE 10 6532
Lakenheath Royal Air Force Base08:56ZClear65 63111015.2SE 13 6532
Aberporth09:00ZNot Avail.65 47111006.9SE 19 Gusting to 28 65436
Thorney Island09:00ZNot Avail.64 53161012.7E 14 6413
Camborne09:00ZPartly Cloudy64 56141006.2ESE 15 64285
Aberdaron09:00ZNot Avail.64 51201008.5E 18 64311
Keswick09:00ZNot Avail.64 46301013.2ESE 6 64265
Saint Bees Head09:00ZNot Avail.64 43181011.2SE 27 Gusting to 35 64406
Altnaharra09:00ZNot Avail.64 49301012N 15 64265
Leconfield08:50ZClear64 55101016.1SE 10 6419
Wattisham08:50ZClear64 48141016.1SE 15 64285
Benson08:50ZNot Avail.64 46251013.1SE 7 64206
Exeter Airport08:50ZNot Avail.64 54251010.1E 9 6498
Norwich Weather Centre08:50ZNot Avail.64 50251017.1SE 12 6445
Kinloss08:50ZHaze64 4841013.1SSE 8 6422
Humberside08:50ZNot Avail.64 5561016.1ESE 11 64101
Lydd Airport 08:50ZNot Avail.64 52201015.1E 10 649
Shoreham Airport08:50ZNot Avail.64 52201013.1E 10 646
Southampton / Weather Centre08:50ZNot Avail.64 50201012.1ESE 8 6429
Yeovilton08:50ZClear64 52251010.1ESE 16 6475
Culdrose08:50ZMostly Cloudy64 57151006.1E 12 64255
Chivenor09:00ZNot Avail.64 51201008ESE 21 Gusting to 31 6426
Staverton Private 08:50ZNot Avail.64 46101012.1SE 6 6495
Herstmonceux09:00ZNot Avail.63 49201014.2ESE 7 63170
Shoeburyness09:00ZNot Avail.63 48201015.5ESE 13 636
Mumbles09:00ZNot Avail.63 51201009.0E 28 Gusting to 36 63114
Holbeach09:00ZNot Avail.63 55251015.9ESE 10 639
Coningsby Royal Air Force Base08:50ZNot Avail.63 54151015.1ESE 11 6322
Northolt08:50ZNot Avail.63 45251014.1SE 11 63124
Middle Wallop08:50ZClear63 48201012.2ESE 11 63298
Cranfield08:50ZNot Avail.63 48251014.1E 13 63364
Stansted Airport08:50ZClear63 48251015.1ESE 13 63347
Stornoway08:50ZNot Avail.63 50451010.1SE 6 6329
Blackpool Airport08:50ZNot Avail.63 48201012.1SE 14 6332
Southend-On-Sea 08:50ZNot Avail.63 48201015.1ESE 7 6349
London / Heathrow Airport08:50ZClear63 46201014.1E 10 6378
London City Airport08:50ZClear63 46201015.1E 12 6316
Scilly; Saint MaryS08:50ZPartly Cloudy63 5971004.1SSE 13 63101
Boscombe Down08:50ZNot Avail.63 48251012.2ESE 11 63406
Manchester Airport08:50ZClear63 46101014.1N 5 63226
Dunkeswell Aerodrome09:00ZNot Avail.62 50191009.7ESE 14 62826
Liscombe09:00ZNot Avail.62 52201009.5ESE 7 Gusting to 17 621141
Milford Haven09:00ZNot Avail.62 52201007.2ESE 23 Gusting to 32 62144
Donna Nook09:00ZNot Avail.62 57121016.4ESE 15 6226
Capel Curig09:00ZNot Avail.62 44401010.7ENE 13 62708
Bridlington Mrsc09:00ZNot Avail.62 56191016.9ESE 15 6249
Tulloch Bridge09:00ZNot Avail.62 46251013.2E 3 62777
South Uist Range09:00ZNot Avail.62 47451008.7SE 22 Gusting to 32 6232
Wainfleet09:00ZNot Avail.62 55111016.4ESE 10 629
Manston09:00ZNot Avail.62 45201015.5ESE 15 62180
Kenley09:00ZNot Avail.61 47251014.2ESE 7 61557
Larkhill09:00ZNot Avail.61 48151012.2E 10 61433
High Wicombe Hqstc09:00ZNot Avail.61 46251013.7ESE 10 61669
Rhyl09:00ZNot Avail.61 45161010.5SE 11 61252
Loftus Samos09:00ZNot Avail.61 53191016.2SE 16 61190
Carlisle09:00ZNot Avail.61 50101014N 6191
Drumalbin09:00ZNot Avail.61 45351012.7SSE 13 61803
Aviemore09:00ZNot Avail.61 49201013.2ENE 3 61721
Cranwell08:50ZNot Avail.61 52121015.2SE 14 61219
Topcliffe Royal Air Force Base 08:50ZClear61 55151016.1SE 11 6191
Waddington08:50ZNot Avail.61 52151015.1ESE 15 61223
Linton-On-Ouse08:50ZClear61 55101016.1ESE 11 6152
Wittering08:50ZClear61 50201014.2ESE 10 61275
Odiham08:50ZClear61 48201013.2E 10 61403
Brize Norton08:50ZNot Avail.61 46201013.2ESE 10 61288
Lossiemouth08:50ZClear61 52251013.1SSE 15 6142
Machrihanish09:00ZNot Avail.61 49151010.0ESE 20 Gusting to 26 6142
Tiree08:50ZNot Avail.61 5081008.1ESE 20 6139
Benbecula08:50ZClear61 4851009.1ESE 15 6119
Prestwick Airport08:50ZNot Avail.61 4851012.1NE 9 6165
West Freugh09:00ZNot Avail.61 50191011.2ESE 15 6136
Tees-Side08:50ZNot Avail.61 5441016.2SSE 11 61121
Farnborough08:50ZClear61 48251013.2E 9 61213
London / Gatwick Airport08:50ZNot Avail.61 50201014.2E 8 61203
Luton Airport 08:50ZClear61 48251014.2ESE 11 61524
Liverpool Airport 08:50ZNot Avail.61 52251013.1ESE 9 6185
Eglinton / Londonderr08:50ZClear61 52101007.1SE 11 Gusting to 22 6129
Belfast / Harbour08:50ZClear61 52101009.1SE 9 6116
Saint Helena Island08:50ZNot Avail.60 58131020.5ESE 21 Gusting to 31 601427
Glenanne09:00ZNot Avail.60 50131007.2SSE 13 60528
Langdon Bay09:00ZNot Avail.60 47251015.4E 13 60383
Church Lawford09:00ZNot Avail.60 47181013.7ESE 9 60351
Crosby09:00ZNot Avail.60 47181012.2SE 12 6026
Warcop Range09:00ZNot Avail.60 47251013.9ESE 19 Gusting to 32 60744
Shap09:00ZNot Avail.60 49201014.4SSE 8 60816
Prestwick Rnas09:00ZNot Avail.60 47301011.5E 9 6085
Loch Glascanoch09:00ZNot Avail.60 47201012.2ESE 13 60869
Fairford Royal Air Force Base08:56ZClear60 46141012.7E 9 60285
Walney Island09:00ZNot Avail.60 51101012.5E 16 6049
Lyneham09:00ZNot Avail.60 47201012.5E 7 60475
Portglenone09:00ZNot Avail.59 52101008ESE 13 Gusting to 24 59209
Castlederg09:00ZNot Avail.59 49111006.0ESE 10 59167
Little Rissington09:00ZNot Avail.59 46201012.7ESE 12 59705
Pershore09:00ZNot Avail.59 47151013.5E 7 59104
Nottingham Weather Centre09:00ZNot Avail.59 51101015E 11 59383
Scatsa / Shetland Island08:50ZClear59 5451016.1ENE 10 5972
Glasgow Airport08:50ZClear59 5051013.1ENE 8 5926
East Midlands08:50ZNot Avail.59 5241014.2ESE 10 59308
Newcastle 08:50ZClear59 5941016.2SE 5 59265
Isle Of Man / Ronaldsway Airport08:50ZNot Avail.59 52121010.1E 20 5955
Carlisle08:50ZNot Avail.59 50201014.1SE 4 5985
Biggin Hill 08:50ZNot Avail.59 46201015.1SE 11 59600
Bristol / Lulsgate 08:50ZClear59 48251011.2E 16 59620
Cardiff-Wales Airport08:50ZClear59 50251010.1E 13 59219
Birmingham / Airport08:50ZNot Avail.59 48101014.2SE 10 59324
Belfast / Aldergrove Airport08:50ZNot Avail.59 52101009.1SE 14 59265
Shobdon09:00ZNot Avail.58 48121012.9E 5 58324
Sennybridge09:00ZNot Avail.58 47151011.2ESE 11 581007
Eskdalemuir09:00ZNot Avail.58 51121014.7SSE 2 58793
Charterhall09:00ZNot Avail.58 5271015.2ESE 4 58367
Aboyne09:00ZNot Avail.58 51161015.5ESE 7 58459
Ballypatrick Forest09:00ZNot Avail.57 5281008.7SSE 19 Gusting to 34 57511
Redesdale09:00ZNot Avail.57 5371015.9SE 8 57692
Dundrennan09:00ZNot Avail.57 49191011.5ENE 16 57374
Leuchars08:50ZHaze57 5461015.1SE 11 5739
Dundee / Riverside08:50ZClear57 5451015.1E 8 5713
Edinburgh Airport08:50ZNot Avail.57 5251014.1ENE 10 57134
Aberdeen / Dyce08:50ZMostly Cloudy57 5451016.1SSE 15 57213
Wick08:50ZClear57 5491014.1SSE 13 57127
Kirkwall Airport08:50ZClear57 54121014.1S 19 5768
Shawbury08:50ZClear57 48121012.2ESE 13 57249
Hawarden08:50ZNot Avail.57 5091013.1SSE 9 5732
Leeds And Bradford08:50ZClear57 52101015.2SE 12 57682
Bingley09:00ZNot Avail.56 5181015.2ESE 10 56859
Baltasound09:00ZHaze56 5451016.4SSE 14 5649
Tain Range09:00ZNot Avail.56 56201013.4N 2 5613
Lough Fea09:00ZNot Avail.55 5171008.2SE 10 55738
Lake Vyrnwy09:00ZNot Avail.55 47191012.2E 7 551181
Spadeadam09:00ZHaze55 5161014.7ENE 13 55935
Strathallan09:00ZNot Avail.55 5371015.2E 4 55114
Fair Isle09:00ZMist55 5461016.4SSE 14 55187
Leeming08:50ZMostly Cloudy55 5541016.2E 2 55131
Inverness / Dalcross08:50ZNot Avail.55 5451013.1ENE 3 5529
Sumburgh Cape 08:50ZClear55 54121016.1SSE 4 5516
Spadeadam08:50ZHaze55 5261014.3ENE 13 551066
Inverbervie09:00ZMist54 5341016.5S 17 49439
Lerwick09:00ZClear54 5371016.7S 13 50269
Aonach Mor09:00ZNot Avail.51 3325S 29 Gusting to 54 443707
Great Dun Fell09:00ZNot Avail.50 4225SE 26 Gusting to 33 432778
Cairnwell09:00ZNot Avail.50 3920S 28 Gusting to 40 423061
Cairngorm09:00ZNot Avail.49 3820SSE 47 Gusting to 61 394084

Atlantic
Tropical Watch